Weather reports worldwide

Advertisment
Neum, Bosnia/Herzegovina (14657): temperature & dewpoint: 15.09.2017 03:00:00 - 21.09.2017 03:00:00 (CEST)Neum, Bosnia/Herzegovina (14657): wind speed: 15.09.2017 03:00:00 - 21.09.2017 03:00:00 (CEST)Neum, Bosnia/Herzegovina (14657): wind direction: 15.09.2017 03:00:00 - 21.09.2017 03:00:00 (CEST)Neum, Bosnia/Herzegovina (14657): reduced air pressure: 15.09.2017 03:00:00 - 21.09.2017 03:00:00 (CEST)
Date & Time tt [°C] td [°C] ff [km/h] ff [kn] dd ppp [hPa]
21.09.2017 03:00:00 14,2 8,2 7 4 N 1013,3
21.09.2017 02:00:00 14,2 8,1 7 4 N 1013,2
21.09.2017 01:00:00 14,2 8,0 4 2 NNE 1012,8
21.09.2017 00:00:00 13,6 8,8 4 2 NE 1012,7
20.09.2017 23:00:00 14,1 9,3 4 2 NE 1012,4
20.09.2017 22:00:00 14,2 10,5 0 0 E 1012,1
20.09.2017 21:00:00 14,9 11,6 4 2 N 1011,7
20.09.2017 20:00:00 15,1 12,2 4 2 N 1011,0
20.09.2017 19:00:00 15,6 12,4 7 4 NNW 1010,4
20.09.2017 18:00:00 17,4 12,2 4 2 N 1010,2
20.09.2017 17:00:00 16,6 11,6 4 2 N 1009,9
20.09.2017 16:00:00 16,9 13,3 4 2 NW 1009,6
20.09.2017 15:00:00 18,2 12,6 4 2 WSW 1009,0
20.09.2017 14:00:00 18,4 13,0 4 2 WSW 1008,4
20.09.2017 13:00:00 18,3 12,3 4 2 SSW 1008,6
20.09.2017 12:00:00 18,1 12,4 4 2 SSW 1008,4
20.09.2017 11:00:00 16,3 13,2 7 4 NW 1008,2
20.09.2017 10:00:00 15,4 14,7 4 2 N 1007,6
20.09.2017 09:00:00 14,7 14,3 7 4 N 1007,0
20.09.2017 08:00:00 14,6 14,1 7 4 NNW 1006,7
20.09.2017 07:00:00 - - - - - -
20.09.2017 06:00:00 13,8 13,5 7 4 ENE 1005,4
20.09.2017 05:00:00 16,7 14,0 11 6 N 1005,9
20.09.2017 04:00:00 16,8 14,2 11 6 N 1006,6
20.09.2017 03:00:00 16,9 14,7 11 6 N 1006,6
20.09.2017 02:00:00 17,4 15,0 14 8 N 1007,3
20.09.2017 01:00:00 17,3 15,0 14 8 NNW 1007,9
20.09.2017 00:00:00 17,8 14,8 11 6 N 1008,5
19.09.2017 23:00:00 17,7 15,6 11 6 N 1009,0
19.09.2017 22:00:00 18,7 15,6 7 4 N 1009,1
19.09.2017 21:00:00 19,1 15,1 7 4 N 1009,3
19.09.2017 20:00:00 20,3 13,5 7 4 NNW 1009,1
19.09.2017 19:00:00 20,7 15,2 7 4 N 1008,3
19.09.2017 18:00:00 22,1 16,2 7 4 WSW 1007,8
19.09.2017 17:00:00 25,2 15,9 4 2 SSE 1007,3
19.09.2017 16:00:00 23,5 15,0 11 6 S 1007,8
19.09.2017 15:00:00 24,1 15,2 7 4 WSW 1007,5
19.09.2017 14:00:00 24,4 16,2 7 4 SSW 1007,6
19.09.2017 13:00:00 23,6 17,3 4 2 WSW 1007,8
19.09.2017 12:00:00 22,5 15,9 4 2 SE 1008,5
19.09.2017 11:00:00 22,3 15,4 4 2 S 1008,5
19.09.2017 10:00:00 22,1 15,6 7 4 SE 1008,5
19.09.2017 09:00:00 21,5 16,6 4 2 SSE 1008,8
19.09.2017 08:00:00 18,8 14,5 4 2 ENE 1009,3
19.09.2017 07:00:00 18,3 13,7 4 2 ENE 1009,5
19.09.2017 06:00:00 18,2 12,9 0 0 E 1009,7
19.09.2017 05:00:00 17,9 12,4 4 2 E 1010,0
19.09.2017 04:00:00 17,6 12,1 0 0 ESE 1010,2
19.09.2017 03:00:00 18,1 12,6 4 2 E 1010,6
19.09.2017 02:00:00 17,8 12,8 4 2 ENE 1011,1
19.09.2017 01:00:00 18,1 12,9 4 2 ESE 1011,3
19.09.2017 00:00:00 18,0 12,8 0 0 WSW 1011,7
18.09.2017 23:00:00 18,8 12,5 4 2 NE 1011,9
18.09.2017 22:00:00 19,0 12,9 4 2 ENE 1012,3
18.09.2017 21:00:00 20,3 13,2 4 2 NNE 1012,4
18.09.2017 20:00:00 21,0 12,9 4 2 NNE 1012,2
18.09.2017 19:00:00 22,8 14,0 4 2 W 1012,1
18.09.2017 18:00:00 22,9 16,5 4 2 W 1012,1
18.09.2017 17:00:00 23,1 15,9 4 2 W 1012,5
18.09.2017 16:00:00 22,7 15,6 4 2 W 1013,1
18.09.2017 15:00:00 23,0 14,7 4 2 W 1013,3
18.09.2017 14:00:00 22,8 14,9 4 2 W 1013,7
18.09.2017 13:00:00 22,4 14,3 4 2 W 1014,3
18.09.2017 12:00:00 21,7 14,3 4 2 SW 1014,7
18.09.2017 11:00:00 20,7 14,0 4 2 SSW 1014,8
18.09.2017 10:00:00 19,9 13,9 4 2 S 1014,8
18.09.2017 09:00:00 18,0 14,2 4 2 ESE 1014,8
18.09.2017 08:00:00 17,1 13,6 7 4 NE 1014,7
18.09.2017 07:00:00 16,4 13,1 7 4 NNW 1014,6
18.09.2017 06:00:00 16,8 13,3 4 2 ENE 1014,1
18.09.2017 05:00:00 16,8 12,5 0 0 W 1013,9
18.09.2017 04:00:00 17,0 14,0 7 4 NNW 1013,7
18.09.2017 03:00:00 18,2 13,9 7 4 N 1013,9
18.09.2017 02:00:00 18,3 14,6 0 0 NW 1014,1
18.09.2017 01:00:00 18,0 15,3 0 0 NNW 1013,9
18.09.2017 00:00:00 18,5 15,5 4 2 N 1014,0
17.09.2017 23:00:00 18,8 15,4 4 2 NE 1013,7
17.09.2017 22:00:00 19,3 15,3 0 0 SSW 1013,3
17.09.2017 21:00:00 19,8 15,0 4 2 NE 1013,1
17.09.2017 20:00:00 20,6 16,1 4 2 ENE 1012,6
17.09.2017 19:00:00 22,3 18,7 0 0 SW 1012,1
17.09.2017 18:00:00 22,4 18,2 0 0 SW 1011,8
17.09.2017 17:00:00 22,0 18,4 4 2 WNW 1011,4
17.09.2017 16:00:00 21,5 19,6 4 2 W 1011,8
17.09.2017 15:00:00 25,3 21,6 4 2 SE 1011,4
17.09.2017 14:00:00 25,2 21,9 4 2 SE 1011,3
17.09.2017 13:00:00 25,0 22,2 7 4 SE 1011,7
17.09.2017 12:00:00 25,6 21,8 7 4 E 1011,0
17.09.2017 11:00:00 25,1 21,8 7 4 NE 1010,8
17.09.2017 10:00:00 25,3 20,6 4 2 E 1011,2
17.09.2017 09:00:00 25,1 18,4 4 2 E 1011,5
17.09.2017 08:00:00 24,1 18,3 4 2 E 1010,9
17.09.2017 07:00:00 23,7 18,7 4 2 E 1010,4
17.09.2017 06:00:00 23,6 18,9 4 2 E 1011,1
17.09.2017 05:00:00 23,8 17,2 4 2 E 1011,8
17.09.2017 04:00:00 23,8 16,5 4 2 ENE 1012,5
17.09.2017 03:00:00 25,3 14,1 4 2 ESE 1012,5
17.09.2017 02:00:00 25,1 10,2 4 2 E 1010,9
17.09.2017 01:00:00 24,9 12,8 4 2 ESE 1011,4
17.09.2017 00:00:00 24,4 14,2 4 2 E 1011,1
16.09.2017 23:00:00 24,9 14,5 4 2 ENE 1011,7
16.09.2017 22:00:00 24,9 13,4 4 2 ENE 1011,4
16.09.2017 21:00:00 25,2 13,0 4 2 E 1011,5
16.09.2017 20:00:00 25,1 13,3 4 2 E 1011,3
16.09.2017 19:00:00 25,5 15,2 4 2 ENE 1011,2
16.09.2017 18:00:00 26,3 17,0 4 2 ESE 1011,6
16.09.2017 17:00:00 27,1 17,4 4 2 E 1011,7
16.09.2017 16:00:00 26,6 18,4 7 4 E 1011,5
16.09.2017 15:00:00 26,6 19,2 4 2 ESE 1011,9
16.09.2017 14:00:00 25,6 19,2 4 2 NE 1011,8
16.09.2017 13:00:00 25,8 19,2 7 4 N 1012,1
16.09.2017 12:00:00 25,9 19,6 7 4 NNE 1012,4
16.09.2017 11:00:00 24,9 20,1 7 4 ESE 1012,5
16.09.2017 10:00:00 24,7 18,6 4 2 SE 1012,0
16.09.2017 09:00:00 23,6 18,3 4 2 E 1011,3
16.09.2017 08:00:00 22,4 16,4 4 2 E 1010,9
16.09.2017 07:00:00 21,5 15,3 4 2 ENE 1010,6
16.09.2017 06:00:00 21,4 15,8 4 2 E 1010,2
16.09.2017 05:00:00 21,3 16,3 4 2 ENE 1010,6
16.09.2017 04:00:00 21,3 17,2 4 2 E 1010,7
16.09.2017 03:00:00 21,4 18,1 4 2 E 1011,3
16.09.2017 02:00:00 20,7 17,8 7 4 NE 1011,5
16.09.2017 01:00:00 20,3 18,0 4 2 ENE 1011,5
16.09.2017 00:00:00 20,4 18,1 7 4 ENE 1011,7
15.09.2017 23:00:00 21,1 19,1 4 2 ENE 1011,8
15.09.2017 22:00:00 21,6 19,8 4 2 E 1011,6
15.09.2017 21:00:00 22,2 20,0 4 2 ENE 1011,7
15.09.2017 20:00:00 22,8 19,7 0 0 WSW 1011,4
15.09.2017 19:00:00 25,0 19,2 4 2 NNE 1011,0
15.09.2017 18:00:00 26,1 19,0 4 2 ESE 1010,9
15.09.2017 17:00:00 27,4 18,5 4 2 ESE 1011,0
15.09.2017 16:00:00 28,0 18,4 4 2 SSE 1011,3
15.09.2017 15:00:00 28,0 18,4 4 2 SSE 1011,8
15.09.2017 14:00:00 28,6 17,7 4 2 SE 1012,1
15.09.2017 13:00:00 28,6 17,6 4 2 SE 1012,5
15.09.2017 12:00:00 23,9 16,4 0 0 SSW 1012,8
15.09.2017 11:00:00 21,9 14,8 0 0 SW 1013,1
15.09.2017 10:00:00 20,8 13,9 0 0 SW 1013,2
15.09.2017 09:00:00 20,1 12,8 4 2 NNW 1012,8
15.09.2017 08:00:00 19,0 13,2 0 0 W 1012,4
15.09.2017 07:00:00 18,3 11,6 4 2 S 1012,3
15.09.2017 06:00:00 18,6 11,3 4 2 ENE 1012,2
15.09.2017 05:00:00 19,0 11,2 7 4 N 1012,7
15.09.2017 04:00:00 19,3 11,5 4 2 NE 1012,6
15.09.2017 03:00:00 19,9 11,7 7 4 NE 1012,6

tt = temperature
td = dewpoint
ff = wind speed
dd = wind direction
ppp = reduced air pressure

Next stations